Hilo, HI

7:20 AM HST on August 28, 2016 (GMT -1000)
Hilo International

Weather History for PHTO - February, 2013

Change the Weather History Date:

Wednesday, February 27, 2013

  Actual Average Record
Temperature  
Mean Temperature 70 °F 71 °F  
Max Temperature 76 °F 79 °F 89 °F (2016)
Min Temperature 64 °F 64 °F 60 °F (1965)
Degree Days  
Heating Degree Days 0 0  
Month to date heating degree days 0 0  
Since 1 July heating degree days 0 0  
Cooling Degree Days 5 6  
Month to date cooling degree days 162 162  
Year to date cooling degree days 367 360  
Growing Degree Days 18 (Base 50)    
Moisture  
Dew Point 61 °F    
Average Humidity 74    
Maximum Humidity 87    
Minimum Humidity 60    
Precipitation  
Precipitation T in 0.38 in 3.84 in (1977)
Month to date precipitation 23.12 9.18  
Year to date precipitation 31.50 18.44  
Snow  
Snow 0.00 in - - ()
Month to date snowfall 0.0  
Since 1 July snowfall 0.0  
Snow Depth 0.00 in    
Sea Level Pressure  
Sea Level Pressure 30.17 in    
Wind  
Wind Speed 6 mph (ENE)    
Max Wind Speed 17 mph    
Max Gust Speed 22 mph    
Visibility 10 miles    
Events      
T = Trace of Precipitation, MM = Missing Value Source: NWS Daily Summary

Daily Weather History Graph

Daily Weather History Graph

Search for Another Location

Airport or City:

Trip Planner

Search our weather history database for the weather conditions in past years. The results will help you decide how hot, cold, wet, or windy it might be!

Date:

Astronomy

Feb. 27, 2013 Rise Set
Actual Time 6:40 AM HST 6:24 PM HST
Civil Twilight 6:18 AM HST 6:47 PM HST
Nautical Twilight 5:53 AM HST 7:12 PM HST
Astronomical Twilight 5:27 AM HST 7:38 PM HST
Moon 8:29 PM HST (2/27) 7:46 AM HST (2/27)
Length of Visible Light 12h 28m
Length of Day
11h 43m
Waning Gibbous, 95% of the Moon is Illuminated
Feb 27
Waning Gibbous
Mar 4
Last Quarter
Mar 11
New
Mar 19
First Quarter
Mar 26
Full

Hourly Weather History & Observations

Time (HST) Temp. Dew Point Humidity Pressure Visibility Wind Dir Wind Speed Gust Speed Precip Events Conditions
12:53 AM 70.0 °F 62.1 °F 76% 30.17 in 10.0 mi ENE 6.9 mph - N/A   Overcast
1:53 AM 70.0 °F 62.1 °F 76% 30.16 in 10.0 mi ENE 9.2 mph - N/A   Mostly Cloudy
2:53 AM 69.1 °F 59.0 °F 70% 30.15 in 10.0 mi ENE 8.1 mph - 0.00 in   Mostly Cloudy
3:53 AM 69.1 °F 60.1 °F 73% 30.15 in 10.0 mi East 6.9 mph - N/A   Mostly Cloudy
4:53 AM 68.0 °F 59.0 °F 73% 30.15 in 10.0 mi Calm Calm - N/A   Mostly Cloudy
5:53 AM 66.0 °F 61.0 °F 84% 30.16 in 10.0 mi SW 4.6 mph - N/A   Mostly Cloudy
6:53 AM 66.0 °F 61.0 °F 84% 30.18 in 10.0 mi Variable 3.5 mph - N/A   Scattered Clouds
7:53 AM 70.0 °F 62.1 °F 76% 30.20 in 10.0 mi West 5.8 mph - N/A   Scattered Clouds
8:53 AM 72.0 °F 61.0 °F 68% 30.21 in 10.0 mi West 4.6 mph - N/A   Mostly Cloudy
9:53 AM 73.9 °F 59.0 °F 59% 30.22 in 10.0 mi ENE 9.2 mph - N/A   Mostly Cloudy
10:53 AM 73.9 °F 63.0 °F 68% 30.22 in 10.0 mi East 13.8 mph - N/A   Mostly Cloudy
11:53 AM 73.9 °F 60.1 °F 62% 30.20 in 10.0 mi ENE 11.5 mph - N/A   Overcast
12:53 PM 75.0 °F 60.1 °F 60% 30.18 in 10.0 mi East 9.2 mph - N/A   Overcast
1:53 PM 73.0 °F 61.0 °F 66% 30.16 in 10.0 mi East 8.1 mph - 0.00 in   Overcast
2:53 PM 71.1 °F 61.0 °F 70% 30.14 in 10.0 mi NW 6.9 mph - 0.00 in   Overcast
3:53 PM 73.0 °F 60.1 °F 64% 30.13 in 10.0 mi WNW 4.6 mph - N/A   Overcast
4:53 PM 73.0 °F 61.0 °F 66% 30.14 in 10.0 mi Calm Calm - N/A   Mostly Cloudy
5:36 PM 73.0 °F 61.0 °F 66% 30.15 in 10.0 mi Calm Calm - N/A   Mostly Cloudy
5:53 PM 72.0 °F 61.0 °F 68% 30.15 in 10.0 mi Calm Calm - N/A   Overcast
6:06 PM 72.0 °F 60.1 °F 66% 30.16 in 10.0 mi ENE 5.8 mph - N/A   Mostly Cloudy
6:53 PM 69.1 °F 61.0 °F 75% 30.16 in 10.0 mi Calm Calm - N/A   Overcast
7:53 PM 66.9 °F 62.1 °F 84% 30.17 in 10.0 mi West 5.8 mph - N/A   Partly Cloudy
8:53 PM 68.0 °F 62.1 °F 81% 30.19 in 10.0 mi WSW 5.8 mph - N/A   Overcast
9:53 PM 66.9 °F 62.1 °F 84% 30.20 in 10.0 mi SW 5.8 mph - N/A   Overcast
10:53 PM 66.0 °F 60.1 °F 81% 30.20 in 10.0 mi WSW 6.9 mph - N/A   Overcast
11:53 PM 64.0 °F 57.9 °F 80% 30.19 in 10.0 mi SW 8.1 mph - N/A   Partly Cloudy